LEMUR-2-JEREMIAH

Last updated on Tue Dec 08 2020 00:02:03 GMT+0000 (Coordinated Universal Time)

1 46911U 20081G 20342.28486597 .00002354 00000-0 19667-3 0 9998 2 46911 36.9048 283.0668 0008236 227.0061 132.9990 14.99011220 4492
UTC large
Height (km)
Speed (km/s)
/
Latitude / Longitude
Inclination (degrees)
Orbital Period (minutes)
Azimuth
Elevation
Range (km)
Doppler Factor

Next 0 passes for location: London (51.5072 / 0.1276)

Sorry there are no passes over London.